Weather History for KDZB - March, 2014

Change the Weather History Date:

Monday, March 24, 2014

  Actual Average (KBMQ) Record (KBMQ)
Temperature  
Mean Temperature 56 °F -  
Max Temperature 66 °F 68 °F 84 °F (2015)
Min Temperature 46 °F 48 °F 30 °F (2006)
Degree Days  
Heating Degree Days 9    
Growing Degree Days 6 (Base 50)    
Moisture  
Dew Point 42 °F    
Average Humidity 63    
Maximum Humidity 80    
Minimum Humidity 44    
Precipitation  
Precipitation 0.00 in - - ()
Sea Level Pressure  
Sea Level Pressure 30.12 in    
Wind  
Wind Speed 2 mph (NNE)    
Max Wind Speed 6 mph    
Max Gust Speed -    
Visibility 10 miles    
Events      
Averages and records for this station are not official NWS values.
T = Trace of Precipitation, MM = Missing Value Source: NWS Daily Summary

Daily Weather History Graph

Daily Weather History Graph

Search for Another Location

Airport or City:

Trip Planner

Search our weather history database for the weather conditions in past years. The results will help you decide how hot, cold, wet, or windy it might be!

Date:

Astronomy

Mar. 24, 2014 Rise Set
Actual Time 6:32 AM MDT 6:47 PM MDT
Civil Twilight 6:08 AM MDT 7:11 PM MDT
Nautical Twilight 5:40 AM MDT 7:39 PM MDT
Astronomical Twilight 5:11 AM MDT 8:08 PM MDT
Moon 1:41 AM MDT (3/24) 12:36 PM MDT (3/24)
Length of Visible Light 13h 03m
Length of Day
12h 15m
Last Quarter, 42% of the Moon is Illuminated
Mar 24
Last Quarter
Mar 30
New
Apr 7
First Quarter
Apr 15
Full
Apr 22
Last Quarter

Hourly Weather History & Observations

Time (MDT) Temp. Windchill Dew Point Humidity Pressure Visibility Wind Dir Wind Speed Gust Speed Precip Events Conditions
12:15 AM 46.4 °F 45.2 °F 38.3 °F 73% 30.23 in 10.0 mi NNW 3.5 mph - N/A   Overcast
12:35 AM 46.4 °F - 37.9 °F 72% 30.22 in 10.0 mi Calm Calm - N/A   Overcast
12:55 AM 46.6 °F - 38.3 °F 73% 30.22 in 10.0 mi NW 4.6 mph - N/A   Overcast
1:15 AM 46.6 °F - 38.5 °F 73% 30.22 in 10.0 mi NW 3.5 mph - N/A   Overcast
1:35 AM 46.8 °F - 38.8 °F 74% 30.20 in 10.0 mi NNW 4.6 mph - N/A   Overcast
1:55 AM 46.4 °F - 38.5 °F 74% 30.20 in 10.0 mi Calm Calm - N/A   Overcast
2:15 AM 46.4 °F - 38.8 °F 75% 30.20 in 10.0 mi Calm Calm - N/A   Overcast
2:35 AM 46.6 °F - 38.8 °F 74% 30.19 in 10.0 mi Calm Calm - N/A   Overcast
2:55 AM 46.6 °F - 39.0 °F 75% 30.18 in 10.0 mi Calm Calm - N/A   Overcast
3:15 AM 46.8 °F - 38.7 °F 73% 30.18 in 10.0 mi Calm Calm - N/A   Overcast
3:35 AM 46.9 °F - 38.7 °F 73% 30.17 in 10.0 mi Calm Calm - N/A   Overcast
3:55 AM 46.9 °F - 38.7 °F 73% 30.16 in 10.0 mi Calm Calm - N/A   Overcast
4:15 AM 46.9 °F - 38.3 °F 72% 30.16 in 10.0 mi Calm Calm - N/A   Overcast
4:35 AM 47.1 °F - 38.5 °F 72% 30.16 in 10.0 mi Calm Calm - N/A   Overcast
4:55 AM 47.3 °F - 38.7 °F 72% 30.16 in 10.0 mi Calm Calm - N/A   Overcast
5:15 AM 47.3 °F - 38.3 °F 71% 30.16 in 10.0 mi Calm Calm - N/A   Overcast
5:35 AM 47.5 °F - 38.3 °F 70% 30.17 in 10.0 mi Calm Calm - N/A   Overcast
5:55 AM 47.5 °F - 38.5 °F 71% 30.17 in 10.0 mi Calm Calm - N/A   Overcast
6:15 AM 47.5 °F - 38.5 °F 71% 30.17 in 10.0 mi Calm Calm - N/A   Overcast
6:35 AM 47.5 °F - 38.8 °F 72% 30.17 in 10.0 mi Calm Calm - N/A   Overcast
6:55 AM 47.7 °F - 38.7 °F 71% 30.17 in 10.0 mi Calm Calm - N/A   Overcast
7:15 AM 48.2 °F - 39.4 °F 72% 30.17 in 10.0 mi WNW 3.5 mph - N/A   Overcast
7:35 AM 48.4 °F - 40.3 °F 74% 30.17 in 10.0 mi NW 3.5 mph - N/A   Overcast
7:55 AM 48.6 °F - 40.5 °F 74% 30.17 in 10.0 mi NNW 3.5 mph - N/A   Overcast
8:15 AM 49.1 °F - 40.6 °F 73% 30.16 in 10.0 mi Calm Calm - N/A   Overcast
8:35 AM 50.0 °F - 40.1 °F 69% 30.16 in 10.0 mi Calm Calm - N/A   Overcast
8:55 AM 52.2 °F - 40.5 °F 64% 30.15 in 10.0 mi ENE 3.5 mph - N/A   Overcast
9:15 AM 53.1 °F - 40.5 °F 62% 30.15 in 10.0 mi NNE 4.6 mph - N/A   Mostly Cloudy
9:35 AM 54.1 °F - 40.1 °F 59% 30.15 in 10.0 mi Calm Calm - N/A   Scattered Clouds
9:55 AM 55.8 °F - 40.3 °F 56% 30.13 in 10.0 mi ENE 4.6 mph - N/A   Clear
10:15 AM 56.7 °F - 40.6 °F 55% 30.14 in 10.0 mi NE 4.6 mph - N/A   Clear
10:35 AM 57.2 °F - 41.0 °F 55% 30.15 in 10.0 mi Calm Calm - N/A   Scattered Clouds
10:55 AM 59.7 °F - 41.9 °F 52% 30.13 in 10.0 mi SE 3.5 mph - N/A   Mostly Cloudy
11:15 AM 59.4 °F - 41.9 °F 52% 30.13 in 10.0 mi NNE 3.5 mph - N/A   Overcast
11:35 AM 60.3 °F - 41.7 °F 50% 30.12 in 10.0 mi SE 3.5 mph - N/A   Overcast
11:55 AM 61.0 °F - 42.4 °F 51% 30.12 in 10.0 mi ESE 3.5 mph - N/A   Overcast
12:15 PM 62.1 °F - 42.8 °F 49% 30.10 in 10.0 mi West 3.5 mph - N/A   Overcast
12:35 PM 62.4 °F - 43.0 °F 49% 30.09 in 10.0 mi Calm Calm - N/A   Overcast
12:55 PM 63.3 °F - 44.2 °F 50% 30.07 in 10.0 mi Calm Calm - N/A   Overcast
1:15 PM 65.3 °F - 43.5 °F 45% 30.07 in 10.0 mi Calm Calm - N/A   Overcast
1:35 PM 66.0 °F - 43.5 °F 44% 30.05 in 10.0 mi North 4.6 mph - N/A   Overcast
1:55 PM 65.7 °F - 43.9 °F 45% 30.04 in 10.0 mi Calm Calm - N/A   Overcast
2:15 PM 64.6 °F - 43.9 °F 47% 30.03 in 10.0 mi NNW 3.5 mph - N/A   Overcast
2:35 PM 64.4 °F - 44.4 °F 48% 30.03 in 10.0 mi North 5.8 mph - N/A   Overcast
2:55 PM 63.9 °F - 45.0 °F 50% 30.03 in 10.0 mi Calm Calm - N/A   Overcast
3:15 PM 64.8 °F - 45.5 °F 50% 30.02 in 10.0 mi Calm Calm - N/A   Overcast
3:35 PM 65.3 °F - 45.5 °F 49% 30.02 in 10.0 mi Calm Calm - N/A   Overcast
3:55 PM 65.5 °F - 45.5 °F 48% 30.01 in 10.0 mi Calm Calm - N/A   Overcast
4:15 PM 65.3 °F - 45.5 °F 49% 30.01 in 10.0 mi Calm Calm - N/A   Overcast
4:35 PM 65.5 °F - 45.5 °F 48% 30.02 in 10.0 mi Calm Calm - N/A   Overcast
4:55 PM 65.3 °F - 45.7 °F 49% 30.02 in 10.0 mi Calm Calm - N/A   Overcast
5:15 PM 65.3 °F - 45.7 °F 49% 30.02 in 10.0 mi NNE 3.5 mph - N/A   Overcast
5:35 PM 65.5 °F - 45.7 °F 49% 30.02 in 10.0 mi Calm Calm - N/A   Overcast
5:55 PM 64.9 °F - 45.7 °F 50% 30.03 in 10.0 mi Calm Calm - N/A   Overcast
6:15 PM 65.1 °F - 45.5 °F 49% 30.03 in 10.0 mi Calm Calm - N/A   Overcast
6:35 PM 64.6 °F - 45.5 °F 50% 30.04 in 10.0 mi ENE 4.6 mph - N/A   Overcast
6:55 PM 63.5 °F - 45.5 °F 52% 30.04 in 10.0 mi Calm Calm - N/A   Overcast
7:15 PM 62.8 °F - 45.7 °F 54% 30.05 in 10.0 mi Calm Calm - N/A   Overcast
7:35 PM 59.5 °F - 45.3 °F 59% 30.07 in 10.0 mi Calm Calm - N/A   Scattered Clouds
7:55 PM 57.4 °F - 45.1 °F 64% 30.08 in 10.0 mi Calm Calm - N/A   Mostly Cloudy
8:15 PM 55.8 °F - 45.0 °F 67% 30.08 in 10.0 mi Calm Calm - N/A   Scattered Clouds
8:35 PM 53.4 °F - 43.9 °F 70% 30.10 in 10.0 mi Calm Calm - N/A   Clear
8:55 PM 52.0 °F - 43.7 °F 73% 30.11 in 10.0 mi Calm Calm - N/A   Clear
9:15 PM 50.7 °F - 43.2 °F 75% 30.12 in 10.0 mi Calm Calm - N/A   Clear
9:35 PM 53.6 °F - 45.3 °F 74% 30.12 in 10.0 mi East 3.5 mph - N/A   Clear
9:55 PM 55.0 °F - 45.9 °F 71% 30.13 in 10.0 mi East 3.5 mph - N/A   Clear
10:15 PM 55.4 °F - 45.5 °F 69% 30.13 in 10.0 mi Calm Calm - N/A   Clear
10:35 PM 53.8 °F - 45.1 °F 73% 30.14 in 10.0 mi Calm Calm - N/A   Clear
10:55 PM 52.2 °F - 44.4 °F 75% 30.15 in 10.0 mi Calm Calm - N/A   Clear
11:15 PM 52.0 °F - 44.6 °F 76% 30.16 in 10.0 mi Calm Calm - N/A   Clear
11:35 PM 50.9 °F - 44.1 °F 77% 30.16 in 10.0 mi Calm Calm - N/A   Clear
11:55 PM 50.5 °F - 44.6 °F 80% 30.15 in 10.0 mi Calm Calm - N/A   Clear